Retour au catalogue

NOAA 7 DEB

ActifPO
NORAD 12560·DEBRIS·🇺🇸 United States

Lancé Jun 23, 1981 depuis Vandenberg Space Force Base

Loading…

Prochains Passages (prochaines 24 heures)

TLE

FraisSource: Space-Track

Époque: Sep 14, 2026, 15:39 UTC

1 12560U 81059C   26257.65236476  .00002581  00000-0  48257-3 0  9993
2 12560  98.9581  35.6182 0002748  74.6994 298.1409 14.65878780370604

Suivez NOAA 7 DEB en temps réel avec AllMySat

Download on the App Store